Zurück zum Katalog

PEGASUS R/B

AktivVLEO
NORAD 27371·ROCKET BODY·🇺🇸 United States

Gestartet Feb 5, 2002 von Cape Canaveral Space Force Station

Loading…

Nächste Überflüge (nächste 24 Stunden)

TLE

AktuellSource: Space-Track

Epoche: Sep 14, 2026, 13:52 UTC

1 27371U 02004B   26257.57795986  .00039573  00000-0  38987-3 0  9999
2 27371  38.0134 308.8298 0000790 288.7001  71.3695 15.65029940355545

Verfolge PEGASUS R/B in Echtzeit mit AllMySat

Download on the App Store